| time (UTC) | temp F | wind direction | speed MPH | gust MPH | rain 1hr in | rain 24hr in | rain mn in | humidity % | barometer mb |
| 20260506165903 | 56 | 133 | 3.0 | 11.0 | 0.00 | 0.00 | 0.00 | 48 | 1013.2 |
| 20260506165402 | 56 | 113 | 2.0 | 11.0 | 0.00 | 0.00 | 0.00 | 48 | 1012.9 |
| 20260506164902 | 56 | 116 | 2.0 | 11.0 | 0.00 | 0.00 | 0.00 | 47 | 1013.1 |
| 20260506164401 | 56 | 116 | 3.0 | 11.0 | 0.00 | 0.00 | 0.00 | 47 | 1012.9 |
| 20260506163901 | 56 | 125 | 2.0 | 11.0 | 0.00 | 0.00 | 0.00 | 47 | 1012.9 |
| 20260506163401 | 56 | 135 | 1.0 | 11.0 | 0.00 | 0.00 | 0.00 | 48 | 1013.1 |
| 20260506162900 | 56 | 142 | 1.0 | 11.0 | 0.00 | 0.00 | 0.00 | 47 | 1012.9 |
| 20260506162359 | 56 | 119 | 2.0 | 11.0 | 0.00 | 0.00 | 0.00 | 46 | 1012.7 |
| 20260506161900 | 56 | 141 | 2.0 | 11.0 | 0.00 | 0.00 | 0.00 | 46 | 1012.9 |
| 20260506161358 | 56 | 95 | 2.0 | 11.0 | 0.00 | 0.00 | 0.00 | 46 | 1013.0 |
| 20260506160859 | 56 | 111 | 2.0 | 11.0 | 0.00 | 0.00 | 0.00 | 45 | 1012.8 |
| 20260506160359 | 56 | 95 | 2.0 | 11.0 | 0.00 | 0.00 | 0.00 | 44 | 1012.9 |
| 20260506155858 | 56 | 114 | 2.0 | 11.0 | 0.00 | 0.00 | 0.00 | 43 | 1013.0 |
| 20260506155358 | 56 | 102 | 2.0 | 11.0 | 0.00 | 0.00 | 0.00 | 43 | 1012.9 |
| 20260506154341 | 56 | 116 | 3.0 | 11.0 | 0.00 | 0.00 | 0.00 | 41 | 1012.8 |
| 20260506153841 | 56 | 111 | 3.0 | 11.0 | 0.00 | 0.00 | 0.00 | 41 | 1012.9 |
| 20260506153340 | 56 | 120 | 3.0 | 11.0 | 0.00 | 0.00 | 0.00 | 41 | 1012.7 |
| 20260506152839 | 56 | 72 | 1.0 | 11.0 | 0.00 | 0.00 | 0.00 | 40 | 1013.0 |
| 20260506152339 | 56 | 111 | 2.0 | 11.0 | 0.00 | 0.00 | 0.00 | 41 | 1012.8 |
| 20260506151837 | 56 | 91 | 2.0 | 11.0 | 0.00 | 0.00 | 0.00 | 40 | 1012.9 |
| 20260506151337 | 57 | 87 | 2.0 | 11.0 | 0.00 | 0.00 | 0.00 | 39 | 1012.9 |
| 20260506150837 | 57 | 91 | 0.0 | 11.0 | 0.00 | 0.00 | 0.00 | 38 | 1012.9 |
| 20260506150337 | 57 | 57 | 2.0 | 11.0 | 0.00 | 0.00 | 0.00 | 37 | 1012.8 |
| 20260506145836 | 57 | 109 | 2.0 | 11.0 | 0.00 | 0.00 | 0.00 | 37 | 1012.7 |
| 20260506145336 | 57 | 105 | 1.0 | 11.0 | 0.00 | 0.00 | 0.00 | 36 | 1012.9 |
| 20260506144835 | 57 | 148 | 2.0 | 11.0 | 0.00 | 0.00 | 0.00 | 37 | 1012.9 |
| 20260506144335 | 57 | 96 | 0.0 | 11.0 | 0.00 | 0.00 | 0.00 | 36 | 1012.9 |
| 20260506143835 | 57 | 104 | 0.0 | 11.0 | 0.00 | 0.00 | 0.00 | 36 | 1013.0 |
| 20260506143334 | 57 | 112 | 3.0 | 11.0 | 0.00 | 0.00 | 0.00 | 36 | 1012.5 |
| 20260506142834 | 57 | 90 | 1.0 | 11.0 | 0.00 | 0.00 | 0.00 | 36 | 1012.7 |
| 20260506142333 | 57 | 70 | 2.0 | 11.0 | 0.00 | 0.00 | 0.00 | 36 | 1012.9 |
| 20260506141834 | 57 | 96 | 2.0 | 11.0 | 0.00 | 0.00 | 0.00 | 37 | 1012.9 |
| 20260506140818 | 58 | 102 | 2.0 | 11.0 | 0.00 | 0.00 | 0.00 | 34 | 1013.1 |
| 20260506140317 | 58 | 27 | 1.0 | 11.0 | 0.00 | 0.00 | 0.00 | 34 | 1012.6 |
| 20260506135817 | 58 | 50 | 1.0 | 11.0 | 0.00 | 0.00 | 0.00 | 33 | 1012.7 |
| 20260506135317 | 58 | 58 | 1.0 | 11.0 | 0.00 | 0.00 | 0.00 | 35 | 1012.7 |
| 20260506134816 | 58 | 73 | 0.0 | 11.0 | 0.00 | 0.00 | 0.00 | 34 | 1012.9 |
| 20260506134315 | 58 | 81 | 1.0 | 11.0 | 0.00 | 0.00 | 0.00 | 34 | 1012.8 |
| 20260506133814 | 58 | 148 | 1.0 | 11.0 | 0.00 | 0.00 | 0.00 | 33 | 1012.6 |
| 20260506133313 | 58 | 43 | 1.0 | 11.0 | 0.00 | 0.00 | 0.00 | 33 | 1012.7 |
| 20260506132258 | 58 | 119 | 2.0 | 11.0 | 0.00 | 0.00 | 0.00 | 34 | 1012.9 |
| 20260506131758 | 58 | 168 | 0.0 | 11.0 | 0.00 | 0.00 | 0.00 | 33 | 1012.7 |
| 20260506131258 | 58 | 166 | 1.0 | 11.0 | 0.00 | 0.00 | 0.00 | 32 | 1012.8 |
| 20260506130758 | 58 | 70 | 1.0 | 11.0 | 0.00 | 0.00 | 0.00 | 33 | 1012.7 |
| 20260506130257 | 58 | 118 | 3.0 | 11.0 | 0.00 | 0.00 | 0.00 | 33 | 1012.5 |
| 20260506125241 | 58 | 120 | 3.0 | 11.0 | 0.00 | 0.00 | 0.00 | 32 | 1013.0 |
| 20260506124740 | 58 | 97 | 1.0 | 11.0 | 0.00 | 0.00 | 0.00 | 33 | 1013.1 |
| 20260506124240 | 57 | 215 | 1.0 | 11.0 | 0.00 | 0.00 | 0.00 | 32 | 1012.5 |
| 20260506123225 | 58 | 212 | 2.0 | 11.0 | 0.00 | 0.00 | 0.00 | 30 | 1012.8 |
| 20260506122724 | 59 | 134 | 2.0 | 11.0 | 0.00 | 0.00 | 0.00 | 30 | 1013.1 |
| 20260506122224 | 59 | 143 | 1.0 | 11.0 | 0.00 | 0.00 | 0.00 | 30 | 1012.9 |
| 20260506121724 | 59 | 53 | 0.0 | 11.0 | 0.00 | 0.00 | 0.00 | 31 | 1012.5 |
| 20260506121224 | 59 | 47 | 0.0 | 11.0 | 0.00 | 0.00 | 0.00 | 31 | 1012.6 |
| 20260506120724 | 60 | 75 | 0.0 | 11.0 | 0.00 | 0.00 | 0.00 | 31 | 1012.9 |
| 20260506120223 | 59 | 95 | 2.0 | 11.0 | 0.00 | 0.00 | 0.00 | 31 | 1012.9 |
| 20260506115722 | 59 | 85 | 2.0 | 11.0 | 0.00 | 0.00 | 0.00 | 31 | 1012.7 |
| 20260506115221 | 60 | 93 | 2.0 | 11.0 | 0.00 | 0.00 | 0.00 | 29 | 1012.9 |
| 20260506114720 | 61 | 49 | 2.0 | 11.0 | 0.00 | 0.00 | 0.00 | 29 | 1012.8 |
| 20260506114220 | 60 | 43 | 1.0 | 11.0 | 0.00 | 0.00 | 0.00 | 31 | 1013.0 |
| 20260506113204 | 59 | 98 | 1.0 | 11.0 | 0.00 | 0.00 | 0.00 | 29 | 1012.9 |
| 20260506112704 | 59 | 31 | 1.0 | 11.0 | 0.00 | 0.00 | 0.00 | 31 | 1013.2 |
| 20260506112203 | 59 | 47 | 2.0 | 11.0 | 0.00 | 0.00 | 0.00 | 29 | 1012.9 |
| 20260506111703 | 58 | 51 | 2.0 | 11.0 | 0.00 | 0.00 | 0.00 | 30 | 1013.2 |
| 20260506111202 | 58 | 72 | 1.0 | 11.0 | 0.00 | 0.00 | 0.00 | 29 | 1013.2 |
| 20260506110701 | 59 | 10 | 2.0 | 11.0 | 0.00 | 0.00 | 0.00 | 29 | 1013.1 |
| 20260506110200 | 59 | 87 | 1.0 | 11.0 | 0.00 | 0.00 | 0.00 | 30 | 1013.3 |
| 20260506105659 | 58 | 88 | 2.0 | 11.0 | 0.00 | 0.00 | 0.00 | 30 | 1013.4 |
| 20260506105158 | 58 | 151 | 2.0 | 11.0 | 0.00 | 0.00 | 0.00 | 28 | 1013.3 |
| 20260506104658 | 58 | 80 | 2.0 | 11.0 | 0.00 | 0.00 | 0.00 | 28 | 1013.3 |
| 20260506104158 | 58 | 123 | 3.0 | 11.0 | 0.00 | 0.00 | 0.00 | 27 | 1013.2 |
| 20260506103141 | 58 | 99 | 1.0 | 11.0 | 0.00 | 0.00 | 0.00 | 31 | 1013.1 |
| 20260506102641 | 57 | 28 | 1.0 | 11.0 | 0.00 | 0.00 | 0.00 | 31 | 1013.5 |
| 20260506102140 | 57 | 28 | 2.0 | 11.0 | 0.00 | 0.00 | 0.00 | 29 | 1013.5 |
| 20260506101124 | 57 | 91 | 1.0 | 11.0 | 0.00 | 0.00 | 0.00 | 30 | 1013.7 |
| 20260506100623 | 57 | 65 | 2.0 | 11.0 | 0.00 | 0.00 | 0.00 | 32 | 1013.8 |
| 20260506100123 | 56 | 330 | 2.0 | 11.0 | 0.00 | 0.00 | 0.00 | 29 | 1013.5 |
| 20260506095623 | 57 | 22 | 3.0 | 11.0 | 0.00 | 0.00 | 0.00 | 30 | 1013.6 |
| 20260506094606 | 58 | 70 | 1.0 | 11.0 | 0.00 | 0.00 | 0.00 | 30 | 1013.6 |
| 20260506093034 | 56 | 136 | 1.0 | 11.0 | 0.00 | 0.00 | 0.00 | 31 | 1013.8 |
| 20260506092534 | 56 | 95 | 5.0 | 11.0 | 0.00 | 0.00 | 0.00 | 31 | 1013.9 |
| 20260506092033 | 56 | 121 | 2.0 | 11.0 | 0.00 | 0.00 | 0.00 | 31 | 1013.6 |
| 20260506091016 | 56 | 2 | 2.0 | 11.0 | 0.00 | 0.00 | 0.00 | 31 | 1013.8 |
| 20260506090515 | 56 | 68 | 1.0 | 11.0 | 0.00 | 0.00 | 0.00 | 33 | 1014.2 |
| 20260506090014 | 56 | 33 | 1.0 | 11.0 | 0.00 | 0.00 | 0.00 | 32 | 1014.1 |
| 20260506085514 | 57 | 18 | 2.0 | 11.0 | 0.00 | 0.00 | 0.00 | 31 | 1014.0 |
| 20260506085013 | 56 | 12 | 1.0 | 11.0 | 0.00 | 0.00 | 0.00 | 33 | 1014.3 |
| 20260506084512 | 55 | 4 | 2.0 | 11.0 | 0.00 | 0.00 | 0.00 | 34 | 1014.0 |
| 20260506084012 | 55 | 11 | 1.0 | 11.0 | 0.00 | 0.00 | 0.00 | 33 | 1014.3 |
| 20260506083512 | 55 | 100 | 0.0 | 11.0 | 0.00 | 0.00 | 0.00 | 34 | 1014.2 |
| 20260506083012 | 55 | 81 | 2.0 | 11.0 | 0.00 | 0.00 | 0.00 | 32 | 1014.1 |
| 20260506082512 | 55 | 59 | 2.0 | 11.0 | 0.00 | 0.00 | 0.00 | 33 | 1014.1 |
| 20260506081455 | 54 | 32 | 3.0 | 11.0 | 0.00 | 0.00 | 0.00 | 33 | 1014.2 |
| 20260506080955 | 54 | 26 | 3.0 | 11.0 | 0.00 | 0.00 | 0.00 | 33 | 1014.3 |
| 20260506080454 | 53 | 101 | 2.0 | 11.0 | 0.00 | 0.00 | 0.00 | 33 | 1014.4 |
| 20260506073451 | 53 | 48 | 3.0 | 11.0 | 0.00 | 0.00 | 0.00 | 31 | 1014.8 |
| 20260506072951 | 53 | 75 | 1.0 | 11.0 | 0.00 | 0.00 | 0.00 | 30 | 1014.4 |
| 20260506072451 | 52 | 55 | 1.0 | 11.0 | 0.00 | 0.00 | 0.00 | 31 | 1014.5 |
| 20260506071434 | 51 | 8 | 1.0 | 11.0 | 0.00 | 0.00 | 0.00 | 31 | 1014.4 |
| 20260506070933 | 51 | 26 | 3.0 | 11.0 | 0.00 | 0.00 | 0.00 | 30 | 1014.6 |
| 20260506070433 | 51 | 19 | 2.0 | 11.0 | 0.00 | 0.00 | 0.00 | 29 | 1014.2 |
| 20260506062430 | 48 | 54 | 0.0 | 12.0 | 0.00 | 0.00 | 0.00 | 46 | 1014.5 |
| 20260506061929 | 47 | 336 | 1.0 | 12.0 | 0.00 | 0.00 | 0.00 | 45 | 1014.3 |
| 20260506061428 | 47 | 336 | 0.0 | 12.0 | 0.00 | 0.00 | 0.00 | 46 | 1014.5 |
| 20260506060928 | 46 | 336 | 0.0 | 12.0 | 0.00 | 0.00 | 0.00 | 48 | 1014.6 |
| 20260506060428 | 46 | 336 | 0.0 | 12.0 | 0.00 | 0.00 | 0.00 | 47 | 1014.6 |
| 20260506051408 | 37 | 336 | 0.0 | 12.0 | 0.00 | 0.00 | 0.00 | 62 | 1014.7 |
| 20260506050908 | 37 | 336 | 0.0 | 12.0 | 0.00 | 0.00 | 0.00 | 63 | 1015.0 |
| 20260506050408 | 36 | 336 | 0.0 | 12.0 | 0.00 | 0.00 | 0.00 | 63 | 1014.8 |
| 20260506044352 | 34 | 336 | 0.0 | 12.0 | 0.00 | 0.00 | 0.00 | 70 | 1015.0 |
| 20260506043851 | 33 | 336 | 0.0 | 12.0 | 0.00 | 0.00 | 0.00 | 71 | 1015.0 |
| 20260506042835 | 32 | 336 | 0.0 | 12.0 | 0.00 | 0.00 | 0.00 | 73 | 1014.9 |
| 20260506042335 | 31 | 336 | 0.0 | 12.0 | 0.00 | 0.00 | 0.00 | 75 | 1014.9 |
| 20260506041319 | 30 | 336 | 0.0 | 12.0 | 0.00 | 0.00 | 0.00 | 76 | 1015.0 |
| 20260506040303 | 30 | 336 | 0.0 | 12.0 | 0.00 | 0.00 | 0.00 | 78 | 1015.1 |
| 20260506035803 | 30 | 336 | 0.0 | 12.0 | 0.00 | 0.00 | 0.00 | 79 | 1015.1 |
| 20260506034747 | 29 | 336 | 0.0 | 12.0 | 0.00 | 0.00 | 0.00 | 80 | 1015.1 |
| 20260506034247 | 29 | 336 | 0.0 | 12.0 | 0.00 | 0.00 | 0.00 | 80 | 1015.1 |
| 20260506033746 | 29 | 336 | 0.0 | 12.0 | 0.00 | 0.00 | 0.00 | 80 | 1015.3 |
| 20260506033246 | 29 | 336 | 0.0 | 12.0 | 0.00 | 0.00 | 0.00 | 80 | 1015.4 |
| 20260506032746 | 29 | 336 | 0.0 | 12.0 | 0.00 | 0.00 | 0.00 | 80 | 1015.2 |
| 20260506032246 | 29 | 336 | 0.0 | 12.0 | 0.00 | 0.00 | 0.00 | 80 | 1015.3 |
| 20260506031231 | 29 | 336 | 0.0 | 12.0 | 0.00 | 0.00 | 0.00 | 80 | 1015.2 |
| 20260506030731 | 29 | 336 | 0.0 | 12.0 | 0.00 | 0.00 | 0.00 | 79 | 1015.4 |
| 20260506030230 | 29 | 336 | 0.0 | 12.0 | 0.00 | 0.00 | 0.00 | 79 | 1015.3 |
| 20260506025729 | 29 | 336 | 0.0 | 12.0 | 0.00 | 0.00 | 0.00 | 78 | 1015.3 |
| 20260506025229 | 29 | 336 | 0.0 | 12.0 | 0.00 | 0.00 | 0.00 | 78 | 1015.2 |
| 20260506024729 | 29 | 336 | 0.0 | 12.0 | 0.00 | 0.00 | 0.00 | 77 | 1015.4 |
| 20260506023158 | 30 | 336 | 0.0 | 12.0 | 0.00 | 0.00 | 0.00 | 78 | 1015.3 |
| 20260506022658 | 30 | 336 | 0.0 | 12.0 | 0.00 | 0.00 | 0.00 | 78 | 1015.4 |
| 20260506022158 | 30 | 336 | 0.0 | 12.0 | 0.00 | 0.00 | 0.00 | 78 | 1015.4 |
| 20260506021141 | 30 | 336 | 0.0 | 12.0 | 0.00 | 0.00 | 0.00 | 78 | 1015.4 |
| 20260506020641 | 30 | 336 | 0.0 | 12.0 | 0.00 | 0.00 | 0.00 | 78 | 1015.4 |
| 20260506020141 | 30 | 336 | 0.0 | 12.0 | 0.00 | 0.00 | 0.00 | 78 | 1015.5 |
| 20260506015640 | 30 | 336 | 0.0 | 12.0 | 0.00 | 0.00 | 0.00 | 77 | 1015.2 |
| 20260506015139 | 30 | 336 | 0.0 | 12.0 | 0.00 | 0.00 | 0.00 | 76 | 1015.2 |
| 20260506014639 | 30 | 336 | 0.0 | 12.0 | 0.00 | 0.00 | 0.00 | 75 | 1015.2 |
| 20260506014138 | 30 | 336 | 0.0 | 12.0 | 0.00 | 0.00 | 0.00 | 75 | 1015.3 |
| 20260506013638 | 30 | 336 | 0.0 | 12.0 | 0.00 | 0.00 | 0.00 | 74 | 1014.9 |
| 20260506011550 | 30 | 336 | 0.0 | 12.0 | 0.00 | 0.00 | 0.00 | 71 | 1014.9 |
| 20260506011049 | 30 | 336 | 0.0 | 12.0 | 0.00 | 0.00 | 0.00 | 70 | 1014.9 |
| 20260506010549 | 31 | 336 | 0.0 | 12.0 | 0.00 | 0.00 | 0.00 | 69 | 1014.9 |
| 20260506010049 | 31 | 336 | 0.0 | 12.0 | 0.00 | 0.00 | 0.00 | 69 | 1014.8 |
| 20260506005548 | 31 | 336 | 0.0 | 12.0 | 0.00 | 0.00 | 0.00 | 69 | 1015.1 |
| 20260506005047 | 32 | 336 | 0.0 | 12.0 | 0.00 | 0.00 | 0.00 | 69 | 1015.1 |
| 20260506004547 | 32 | 336 | 0.0 | 12.0 | 0.00 | 0.00 | 0.00 | 68 | 1015.2 |
| 20260506004046 | 32 | 336 | 0.0 | 12.0 | 0.00 | 0.00 | 0.00 | 68 | 1014.8 |
| 20260506003031 | 33 | 336 | 0.0 | 12.0 | 0.00 | 0.00 | 0.00 | 68 | 1014.7 |
| 20260506002530 | 33 | 336 | 0.0 | 12.0 | 0.00 | 0.00 | 0.00 | 68 | 1014.9 |
| 20260506002029 | 33 | 336 | 0.0 | 12.0 | 0.00 | 0.00 | 0.00 | 66 | 1014.8 |
| 20260506001529 | 34 | 336 | 0.0 | 12.0 | 0.00 | 0.00 | 0.00 | 65 | 1015.0 |
| 20260506000513 | 34 | 336 | 0.0 | 12.0 | 0.00 | 0.00 | 0.00 | 65 | 1014.8 |
| 20260506000013 | 34 | 336 | 0.0 | 12.0 | 0.00 | 0.00 | 0.00 | 65 | 1014.9 |
| 20260505234957 | 34 | 336 | 0.0 | 12.0 | 0.00 | 0.00 | 0.00 | 64 | 1014.8 |
| 20260505234456 | 34 | 336 | 0.0 | 12.0 | 0.00 | 0.00 | 0.00 | 63 | 1014.8 |
| 20260505233441 | 35 | 336 | 0.0 | 12.0 | 0.00 | 0.00 | 0.00 | 63 | 1014.9 |
| 20260505232941 | 35 | 336 | 0.0 | 12.0 | 0.00 | 0.00 | 0.00 | 63 | 1014.8 |
| 20260505232441 | 35 | 336 | 0.0 | 12.0 | 0.00 | 0.00 | 0.00 | 63 | 1014.7 |
| 20260505231425 | 35 | 336 | 0.0 | 12.0 | 0.00 | 0.00 | 0.00 | 63 | 1014.7 |
| 20260505230410 | 36 | 336 | 0.0 | 12.0 | 0.00 | 0.00 | 0.00 | 64 | 1014.6 |
| 20260505225909 | 36 | 336 | 0.0 | 12.0 | 0.00 | 0.00 | 0.00 | 64 | 1014.5 |
| 20260505225409 | 36 | 336 | 0.0 | 12.0 | 0.00 | 0.00 | 0.00 | 63 | 1014.7 |
| 20260505224908 | 37 | 336 | 0.0 | 12.0 | 0.00 | 0.00 | 0.00 | 62 | 1014.8 |
| 20260505224408 | 37 | 336 | 0.0 | 12.0 | 0.00 | 0.00 | 0.00 | 62 | 1014.8 |
| 20260505223908 | 37 | 336 | 0.0 | 12.0 | 0.00 | 0.00 | 0.00 | 61 | 1014.6 |
| 20260505222852 | 38 | 336 | 0.0 | 12.0 | 0.00 | 0.00 | 0.00 | 60 | 1014.9 |
| 20260505222351 | 38 | 222 | 0.0 | 12.0 | 0.00 | 0.00 | 0.00 | 57 | 1014.6 |
| 20260505221851 | 39 | 222 | 0.0 | 12.0 | 0.00 | 0.00 | 0.00 | 53 | 1014.5 |
| 20260505221350 | 39 | 222 | 0.0 | 12.0 | 0.00 | 0.00 | 0.00 | 53 | 1014.4 |
| 20260505220850 | 39 | 222 | 0.0 | 12.0 | 0.00 | 0.00 | 0.00 | 53 | 1014.4 |
| 20260505215833 | 38 | 222 | 0.0 | 12.0 | 0.00 | 0.00 | 0.00 | 55 | 1014.4 |
| 20260505215333 | 39 | 222 | 0.0 | 12.0 | 0.00 | 0.00 | 0.00 | 56 | 1014.4 |
| 20260505214832 | 39 | 222 | 0.0 | 12.0 | 0.00 | 0.00 | 0.00 | 56 | 1014.2 |
| 20260505214332 | 39 | 222 | 0.0 | 12.0 | 0.00 | 0.00 | 0.00 | 56 | 1014.4 |
| 20260505213315 | 40 | 222 | 0.0 | 12.0 | 0.00 | 0.00 | 0.00 | 55 | 1014.3 |
| 20260505212814 | 40 | 222 | 0.0 | 12.0 | 0.00 | 0.00 | 0.00 | 56 | 1014.3 |
| 20260505212314 | 40 | 222 | 0.0 | 12.0 | 0.00 | 0.00 | 0.00 | 56 | 1014.0 |
| 20260505211814 | 40 | 222 | 0.0 | 12.0 | 0.00 | 0.00 | 0.00 | 55 | 1014.3 |
| 20260505211313 | 40 | 222 | 0.0 | 12.0 | 0.00 | 0.00 | 0.00 | 56 | 1014.6 |
| 20260505210257 | 40 | 222 | 0.0 | 12.0 | 0.00 | 0.00 | 0.00 | 56 | 1014.4 |
| 20260505205757 | 41 | 222 | 0.0 | 12.0 | 0.00 | 0.00 | 0.00 | 56 | 1014.3 |
| 20260505205256 | 41 | 222 | 0.0 | 12.0 | 0.00 | 0.00 | 0.00 | 55 | 1013.9 |
| 20260505204241 | 42 | 222 | 0.0 | 12.0 | 0.00 | 0.00 | 0.00 | 54 | 1014.0 |
| 20260505203225 | 42 | 222 | 0.0 | 12.0 | 0.00 | 0.00 | 0.00 | 53 | 1013.9 |
| 20260505202209 | 43 | 222 | 0.0 | 12.0 | 0.00 | 0.00 | 0.00 | 52 | 1013.9 |
| 20260505201709 | 43 | 222 | 0.0 | 12.0 | 0.00 | 0.00 | 0.00 | 51 | 1013.9 |
| 20260505201208 | 44 | 222 | 0.0 | 12.0 | 0.00 | 0.00 | 0.00 | 51 | 1013.7 |
| 20260505200708 | 44 | 222 | 0.0 | 12.0 | 0.00 | 0.00 | 0.00 | 50 | 1013.8 |
| 20260505200208 | 44 | 221 | 0.0 | 12.0 | 0.00 | 0.00 | 0.00 | 49 | 1013.7 |
| 20260505195708 | 45 | 221 | 0.0 | 12.0 | 0.00 | 0.00 | 0.00 | 48 | 1013.6 |
| 20260505195207 | 45 | 222 | 0.0 | 12.0 | 0.00 | 0.00 | 0.00 | 48 | 1013.7 |
| 20260505194707 | 45 | 217 | 0.0 | 12.0 | 0.00 | 0.00 | 0.00 | 47 | 1013.8 |
| 20260505194206 | 46 | 214 | 1.0 | 12.0 | 0.00 | 0.00 | 0.00 | 46 | 1013.4 |
| 20260505193705 | 46 | 212 | 1.0 | 12.0 | 0.00 | 0.00 | 0.00 | 46 | 1013.7 |
| 20260505192133 | 47 | 247 | 0.0 | 12.0 | 0.00 | 0.00 | 0.00 | 43 | 1013.7 |
| 20260505191117 | 48 | 247 | 0.0 | 12.0 | 0.00 | 0.00 | 0.00 | 42 | 1013.3 |
| 20260505190617 | 48 | 247 | 0.0 | 12.0 | 0.00 | 0.00 | 0.00 | 41 | 1013.3 |
| 20260505190117 | 48 | 247 | 0.0 | 12.0 | 0.00 | 0.00 | 0.00 | 39 | 1013.4 |
| 20260505185617 | 49 | 247 | 0.0 | 12.0 | 0.00 | 0.00 | 0.00 | 39 | 1013.3 |
| 20260505185116 | 49 | 247 | 0.0 | 12.0 | 0.00 | 0.00 | 0.00 | 38 | 1013.0 |
| 20260505184616 | 49 | 247 | 0.0 | 12.0 | 0.00 | 0.00 | 0.00 | 37 | 1013.0 |
| 20260505184116 | 50 | 247 | 0.0 | 12.0 | 0.00 | 0.00 | 0.00 | 36 | 1013.0 |
| 20260505183615 | 50 | 247 | 1.0 | 12.0 | 0.00 | 0.00 | 0.00 | 35 | 1013.3 |
| 20260505183115 | 50 | 240 | 0.0 | 12.0 | 0.00 | 0.00 | 0.00 | 34 | 1013.2 |
| 20260505182615 | 50 | 240 | 0.0 | 12.0 | 0.00 | 0.00 | 0.00 | 34 | 1012.8 |
| 20260505182114 | 51 | 245 | 0.0 | 12.0 | 0.00 | 0.00 | 0.00 | 33 | 1013.1 |
| 20260505181059 | 51 | 249 | 0.0 | 12.0 | 0.00 | 0.00 | 0.00 | 33 | 1012.7 |
| 20260505180559 | 51 | 249 | 0.0 | 12.0 | 0.00 | 0.00 | 0.00 | 33 | 1013.1 |
| 20260505180059 | 52 | 246 | 0.0 | 12.0 | 0.00 | 0.00 | 0.00 | 32 | 1012.8 |
| 20260505175043 | 53 | 208 | 0.0 | 12.0 | 0.00 | 0.00 | 0.00 | 31 | 1012.7 |
| 20260505174027 | 53 | 268 | 2.0 | 12.0 | 0.00 | 0.00 | 0.00 | 30 | 1012.6 |
| 20260505173526 | 53 | 223 | 1.0 | 12.0 | 0.00 | 0.00 | 0.00 | 31 | 1012.7 |
| 20260505173025 | 54 | 228 | 1.0 | 12.0 | 0.00 | 0.00 | 0.00 | 30 | 1012.6 |
| 20260505172524 | 54 | 239 | 0.0 | 12.0 | 0.00 | 0.00 | 0.00 | 31 | 1012.5 |
| 20260505172024 | 54 | 237 | 0.0 | 12.0 | 0.00 | 0.00 | 0.00 | 30 | 1012.5 |
| 20260505171009 | 54 | 237 | 1.0 | 12.0 | 0.00 | 0.00 | 0.00 | 29 | 1012.4 |